Tyler, TX

12:33 AM CST on February 09, 2016 (GMT -0600)
Tyler Pounds

Weather History for KTYR - August, 2012

Change the Weather History Date:

Sunday, August 26, 2012

  Actual Average Record
Temperature  
Mean Temperature 84 °F 82 °F  
Max Temperature 94 °F 92 °F 104 °F (2011)
Min Temperature 73 °F 72 °F 55 °F (1966)
Degree Days  
Heating Degree Days 0 0  
Month to date heating degree days 0 0  
Since 1 June heating degree days 0 0  
Since 1 July heating degree days 0 0  
Cooling Degree Days 19 17  
Month to date cooling degree days 524 482  
Year to date cooling degree days 2317 1840  
Since 1 June cooling degree days 1658 1471  
Growing Degree Days 33 (Base 50)    
Moisture  
Dew Point 72 °F    
Average Humidity 69    
Maximum Humidity 94    
Minimum Humidity 44    
Precipitation  
Precipitation 0.19 in 0.11 in 4.82 in (1962)
Month to date precipitation 1.93 2.33  
Year to date precipitation 23.10 28.73  
Snow  
Snow 0.00 in - - ()
Month to date snowfall 0.0  
Since 1 June snowfall 0.0  
Since 1 July snowfall 0.0  
Snow Depth 0.00 in    
Sea Level Pressure  
Sea Level Pressure 30.01 in    
Wind  
Wind Speed 6 mph (South)    
Max Wind Speed 20 mph    
Max Gust Speed 23 mph    
Visibility 10 miles    
Events Rain    
T = Trace of Precipitation, MM = Missing Value Source: NWS Daily Summary

Daily Weather History Graph

Daily Weather History Graph

Search for Another Location

Airport or City:

Trip Planner

Search our weather history database for the weather conditions in past years. The results will help you decide how hot, cold, wet, or windy it might be!

Date:

Astronomy

Aug. 26, 2012 Rise Set
Actual Time 6:53 AM CDT 7:52 PM CDT
Civil Twilight 6:27 AM CDT 8:17 PM CDT
Nautical Twilight 5:57 AM CDT 8:47 PM CDT
Astronomical Twilight 5:27 AM CDT 9:18 PM CDT
Moon 4:13 PM CDT (8/26) 1:46 AM CDT (8/26)
Length of Visible Light 13h 50m
Length of Day
12h 59m
Waxing Gibbous, 73% of the Moon is Illuminated
Aug 26
Waxing Gibbous
Aug 31
Full
Sep 8
Last Quarter
Sep 15
New
Sep 22
First Quarter

Hourly Weather History & Observations

Time (CDT) Temp. Heat Index Dew Point Humidity Pressure Visibility Wind Dir Wind Speed Gust Speed Precip Events Conditions
12:53 AM 75.9 °F - 69.1 °F 79% 29.96 in 10.0 mi South 9.2 mph - N/A   Clear
1:53 AM 75.0 °F - 69.1 °F 82% 29.96 in 10.0 mi South 8.1 mph - N/A   Clear
2:53 AM 75.0 °F - 70.0 °F 84% 29.95 in 10.0 mi South 10.4 mph - N/A   Mostly Cloudy
3:24 AM 75.2 °F - 69.8 °F 83% 29.98 in 10.0 mi South 9.2 mph - N/A   Scattered Clouds
3:53 AM 73.9 °F - 70.0 °F 87% 29.96 in 10.0 mi South 6.9 mph - N/A   Clear
4:53 AM 73.9 °F - 70.0 °F 87% 29.97 in 10.0 mi South 5.8 mph - N/A   Clear
5:53 AM 73.0 °F - 70.0 °F 90% 29.99 in 10.0 mi South 6.9 mph - N/A   Partly Cloudy
6:34 AM 73.4 °F - 69.8 °F 88% 30.03 in 10.0 mi ESE 3.5 mph - N/A   Mostly Cloudy
6:46 AM 73.4 °F - 69.8 °F 88% 30.03 in 10.0 mi SSE 4.6 mph - N/A   Overcast
6:53 AM 73.0 °F - 70.0 °F 90% 30.01 in 10.0 mi South 4.6 mph - N/A   Overcast
7:53 AM 75.0 °F - 71.1 °F 87% 30.04 in 10.0 mi South 8.1 mph - N/A   Mostly Cloudy
8:02 AM 75.2 °F - 71.6 °F 89% 30.06 in 10.0 mi SSE 4.6 mph - N/A   Mostly Cloudy
8:53 AM 79.0 °F - 72.0 °F 79% 30.04 in 10.0 mi South 10.4 mph - N/A   Mostly Cloudy
9:26 AM 80.6 °F 85.4 °F 73.4 °F 79% 30.07 in 10.0 mi South 10.4 mph - N/A   Overcast
9:53 AM 82.0 °F 87.4 °F 73.0 °F 74% 30.05 in 10.0 mi South 8.1 mph - N/A   Overcast
10:53 AM 84.0 °F 89.6 °F 72.0 °F 67% 30.07 in 10.0 mi SSW 8.1 mph 17.3 mph N/A   Mostly Cloudy
11:34 AM 84.2 °F 89.6 °F 71.6 °F 66% 30.08 in 10.0 mi SW 10.4 mph - N/A   Scattered Clouds
11:53 AM 86.0 °F 92.2 °F 72.0 °F 63% 30.06 in 10.0 mi SW 9.2 mph - N/A   Partly Cloudy
12:53 PM 88.0 °F 93.8 °F 71.1 °F 57% 30.04 in 10.0 mi SSW 6.9 mph - N/A   Partly Cloudy
1:53 PM 91.0 °F 97.6 °F 71.1 °F 52% 30.01 in 10.0 mi Variable 6.9 mph - N/A   Clear
2:53 PM 91.4 °F 95.4 °F 68.0 °F 46% 30.01 in 10.0 mi SSW 10.4 mph - N/A   Clear
3:53 PM 93.0 °F 97.4 °F 68.0 °F 44% 29.96 in 10.0 mi South 8.1 mph - N/A   Scattered Clouds
4:53 PM 86.0 °F 91.5 °F 71.1 °F 61% 29.97 in 8.0 mi SSW 16.1 mph 23.0 mph 0.00 in Rain Light Rain
5:53 PM 79.0 °F - 75.9 °F 90% 29.99 in 7.0 mi WSW 4.6 mph - 0.08 in Rain Light Rain
6:53 PM 78.1 °F - 77.0 °F 96% 29.98 in 5.0 mi North 4.6 mph - 0.03 in   Mostly Cloudy
7:53 PM 78.1 °F - 75.0 °F 90% 29.98 in 10.0 mi NNE 3.5 mph - 0.03 in   Partly Cloudy
8:53 PM 78.1 °F - 73.9 °F 87% 29.99 in 10.0 mi Calm Calm - 0.02 in   Clear
9:53 PM 77.0 °F - 73.0 °F 88% 30.01 in 10.0 mi Calm Calm - 0.01 in   Clear
10:53 PM 77.0 °F - 73.9 °F 90% 30.00 in 10.0 mi Calm Calm - 0.01 in   Clear
11:53 PM 75.9 °F - 73.0 °F 91% 30.00 in 9.0 mi Calm Calm - 0.01 in   Clear